Havre St Pierre, Quebec

4:41 PM EST on February 27, 2017 (GMT -0500)
Havre Saint-Pierre

Weather History for CYGV - September, 2013

Change the Weather History Date:

Friday, September 6, 2013

  Actual Average Record
Temperature  
Mean Temperature 48 °F -  
Max Temperature 55 °F 55 °F 68 °F (2016)
Min Temperature 41 °F 39 °F 32 °F (2007)
Degree Days  
Heating Degree Days 17    
Moisture  
Dew Point 42 °F    
Average Humidity 78    
Maximum Humidity 87    
Minimum Humidity 63    
Precipitation  
Precipitation 0.00 in - - ()
Sea Level Pressure  
Sea Level Pressure 29.82 in    
Wind  
Wind Speed 10 mph ()    
Max Wind Speed 23 mph    
Max Gust Speed 32 mph    
Visibility 9.0 miles    
Events Rain    
Averages and records for this station are not official NWS values.
T = Trace of Precipitation, MM = Missing Value Source: Averaged Metar Reports

Daily Weather History Graph

Daily Weather History Graph

Search for Another Location

Airport or City:

Trip Planner

Search our weather history database for the weather conditions in past years. The results will help you decide how hot, cold, wet, or windy it might be!

Date:

Astronomy

Sep. 06, 2013 Rise Set
Actual Time 5:36 AM EDT 6:47 PM EDT
Civil Twilight 5:03 AM EDT 7:20 PM EDT
Nautical Twilight 4:23 AM EDT 8:01 PM EDT
Astronomical Twilight 3:39 AM EDT 8:44 PM EDT
Moon 6:57 AM EDT (9/6) 6:54 PM EDT (9/6)
Length of Visible Light 14h 17m
Length of Day
13h 10m
New Moon, 1% of the Moon is Illuminated
Sep 6
New Moon
Sep 12
First Quarter
Sep 19
Full
Sep 26
Last Quarter
Oct 4
New

Hourly Weather History & Observations

Time (EDT) Temp. Windchill Dew Point Humidity Pressure Visibility Wind Dir Wind Speed Gust Speed Precip Events Conditions
12:00 AM 44.6 °F 39.2 °F 37.4 °F 76% 29.84 in 9.0 mi West 10.4 mph - N/A   Clear
1:00 AM 42.8 °F 37.0 °F 37.4 °F 81% 29.85 in 9.0 mi West 10.4 mph - N/A   Clear
2:00 AM 41.0 °F 35.2 °F 35.6 °F 81% 29.85 in 9.0 mi West 9.2 mph - N/A   Clear
3:00 AM 41.0 °F 37.1 °F 35.6 °F 81% 29.85 in 9.0 mi West 5.8 mph - N/A   Clear
4:00 AM 41.0 °F 35.2 °F 35.6 °F 81% 29.86 in 9.0 mi West 9.2 mph - N/A   Clear
5:00 AM 41.0 °F 34.7 °F 35.6 °F 81% 29.86 in 9.0 mi West 10.4 mph - N/A   Mostly Cloudy
6:00 AM 41.0 °F 35.2 °F 37.4 °F 87% 29.87 in 9.0 mi West 9.2 mph - N/A   Overcast
7:00 AM 42.8 °F 37.0 °F 37.4 °F 81% 29.87 in 9.0 mi West 10.4 mph - N/A   Overcast
8:00 AM 44.6 °F 38.8 °F 39.2 °F 81% 29.87 in 9.0 mi West 11.5 mph 17.3 mph N/A   Overcast
9:00 AM 46.4 °F 40.1 °F 39.2 °F 76% 29.88 in 9.0 mi West 15.0 mph 20.7 mph N/A   Overcast
10:00 AM 51.8 °F - 41.0 °F 67% 29.86 in 9.0 mi West 13.8 mph 24.2 mph N/A   Clear
11:00 AM 53.6 °F - 42.8 °F 67% 29.84 in 9.0 mi WSW 16.1 mph 25.3 mph N/A   Clear
12:00 PM 53.6 °F - 42.8 °F 67% 29.83 in 9.0 mi WSW 21.9 mph 31.1 mph N/A   Clear
12:42 PM 53.6 °F - 42.8 °F 67% 29.83 in 9.0 mi WSW 23.0 mph 31.1 mph N/A   Mostly Cloudy
12:50 PM 55.4 °F - 42.8 °F 63% 29.83 in 9.0 mi West 20.7 mph 29.9 mph N/A   Scattered Clouds
1:00 PM 55.4 °F - 44.6 °F 67% 29.83 in 9.0 mi WSW 19.6 mph 32.2 mph N/A   Partly Cloudy
2:00 PM 55.4 °F - 42.8 °F 63% 29.82 in 9.0 mi WSW 18.4 mph 28.8 mph N/A   Clear
3:00 PM 53.6 °F - 44.6 °F 72% 29.81 in 9.0 mi WSW 18.4 mph 29.9 mph N/A   Clear
4:00 PM 51.8 °F - 44.6 °F 76% 29.80 in 9.0 mi WSW 19.6 mph 28.8 mph N/A   Overcast
5:00 PM 50.0 °F - 44.6 °F 82% 29.80 in 9.0 mi WSW 11.5 mph 24.2 mph N/A   Overcast
6:00 PM 50.0 °F - 44.6 °F 82% 29.79 in 9.0 mi WSW 15.0 mph - N/A   Overcast
7:00 PM 50.0 °F - 44.6 °F 82% 29.79 in 9.0 mi WSW 6.9 mph - N/A   Overcast
7:21 PM 50.0 °F - 44.6 °F 82% 29.79 in 9.0 mi WSW 8.1 mph - N/A Rain Light Rain
8:00 PM 50.0 °F - 46.4 °F 87% 29.78 in 9.0 mi SW 6.9 mph - N/A Rain Light Rain
8:20 PM 50.0 °F - 46.4 °F 87% 29.77 in 9.0 mi SSW 5.8 mph - N/A   Overcast
8:29 PM 50.0 °F - 46.4 °F 87% 29.78 in 9.0 mi SW 4.6 mph - N/A Rain Light Rain
9:00 PM 50.0 °F - 46.4 °F 87% 29.78 in 9.0 mi WSW 4.6 mph - N/A Rain Light Rain
9:23 PM 50.0 °F - 46.4 °F 87% 29.76 in 9.0 mi South 4.6 mph - N/A   Overcast
10:00 PM 50.0 °F - 46.4 °F 87% 29.75 in 9.0 mi Calm Calm - N/A   Overcast
11:00 PM 50.0 °F - 46.4 °F 87% 29.73 in 9.0 mi SSW 3.5 mph - N/A   Overcast